(306) Unitas
ephemeris date magn radius delta ra dec elong phase
Today9 Jul 202514.02.482 AU2.771 AU11h29m+08°38'63.1°21.4°
Opposition10 Aug 202610.42.001 AU0.988 AU21h23m-14°18'178.5°0.8°
(306) Unitas - 2025-07-09
astro.vanbuitenen.nl


 
-1 year
-1 month
-1 day
Now
+1 day
+1 month
+1 year

The interactive orbit chart above shows the body's path through the solar system and its position at the given date. Green and blue lines are shown perpendicular to the ecliptic plane: Green if the path is above the ecliptic plane, blue if it is below. (Left-click and drag to rotate the view; Right-click and drag to move the view; Use scroll wheel to zoom in our out.)

The orbital elements of Unitas are:

            e (Eccentricity)                : 0.1520784
            a (Semimajor axis)              : 2.3571619
            i (Inclination)                 : 7.27829
            Ω (Longitude of ascending node) : 141.78509
            ω (Argument of perihelion)      : 167.96888
            M (Mean anomaly)                : 240.10174
            Epoch                           : 2025 May 05

            L (Longitude of perihelion)     : 129.84812
            B (Latitude of perihelion)      : 1.51321
            P (Orbital period in years)     : 3.62            
        

The light curve chart below shows the estimated development of the minor planet's magnitude.


The all-sky chart below shows the path of the minor planet over the same period as the light curve. The current position is marked yellow.





The following chart shows the path of the minor planet in the next few days. The field of view is optimized for (~10x50) binoculars and finderscopes. A more printer-friendly version of the same chart can be found below.




Ephemerides:
Date       Time       RA (2000)    DEC (2000)    delta   radius  elong  phase   PA    magn
2025-07-09 00:00 UT   11 29 52.0   +08 38 54     2.771    2.482   63.1   21.4   111   14.0 
2025-07-09 04:28 UT   11 30 06.4   +08 37 20     2.773    2.482   63.0   21.4   111   14.0 
2025-07-10 00:00 UT   11 31 09.7   +08 30 27     2.781    2.480   62.5   21.3   111   14.0 
2025-07-11 00:00 UT   11 32 28.0   +08 21 55     2.790    2.479   61.9   21.2   111   14.0 
2025-07-12 00:00 UT   11 33 46.8   +08 13 21     2.800    2.477   61.3   21.1   111   14.0 
2025-07-13 00:00 UT   11 35 06.1   +08 04 42     2.809    2.476   60.7   21.0   111   14.0 
2025-07-14 00:00 UT   11 36 25.8   +07 56 01     2.819    2.474   60.1   20.9   111   14.0 
2025-07-15 00:00 UT   11 37 46.0   +07 47 16     2.828    2.473   59.5   20.7   110   14.0 
2025-07-16 00:00 UT   11 39 06.7   +07 38 27     2.838    2.471   58.9   20.6   110   14.0 
2025-07-17 00:00 UT   11 40 27.9   +07 29 36     2.847    2.470   58.3   20.5   110   14.0 
2025-07-18 00:00 UT   11 41 49.5   +07 20 41     2.856    2.468   57.8   20.4   110   14.0 
2025-07-19 00:00 UT   11 43 11.5   +07 11 42     2.865    2.467   57.2   20.3   110   14.0 
2025-07-20 00:00 UT   11 44 34.0   +07 02 41     2.874    2.465   56.6   20.1   110   14.0 
2025-07-21 00:00 UT   11 45 57.0   +06 53 37     2.883    2.463   56.0   20.0   110   14.0 
2025-07-22 00:00 UT   11 47 20.4   +06 44 29     2.892    2.462   55.4   19.9   110   14.0 
2025-07-23 00:00 UT   11 48 44.2   +06 35 19     2.900    2.460   54.9   19.7   110   14.0 
2025-07-24 00:00 UT   11 50 08.5   +06 26 05     2.909    2.459   54.3   19.6   110   14.0 
2025-07-25 00:00 UT   11 51 33.2   +06 16 49     2.917    2.457   53.7   19.5   110   14.0 
2025-07-26 00:00 UT   11 52 58.3   +06 07 30     2.926    2.456   53.2   19.3   110   14.0 
2025-07-27 00:00 UT   11 54 23.8   +05 58 08     2.934    2.454   52.6   19.2   110   14.0 
2025-07-28 00:00 UT   11 55 49.7   +05 48 43     2.943    2.452   52.0   19.1   110   14.0 
2025-07-29 00:00 UT   11 57 16.0   +05 39 16     2.951    2.451   51.5   18.9   110   14.0 
2025-07-30 00:00 UT   11 58 42.7   +05 29 47     2.959    2.449   50.9   18.8   110   14.0 
2025-07-31 00:00 UT   12 00 09.9   +05 20 14     2.967    2.448   50.4   18.6   109   14.0 


    Terminology:
            
    delta:  distance between minor planet and earth in AU
    radius: distance between minor planet and sun in AU
    magn:   magnitude (brightness) estimate    
    ra:     right ascension in hours (24h = 360deg)
    dec:    declination in degrees
    elong:  elongation in degrees (angle sun-earth-minor planet)    
    phase:  phase angle in degrees (angle sun-minor planet-earth)        
    AU:     Astronomical Unit (mean distance between earth and sun: 149597870.7 km
    

Orbital elements provided by the MPC (Minor Planet Center).
Calculations by a modified version of AAPlus, a C# implementation of the AA+ project by PJ Naughter from the algorithms presented in the book "Astronomical Algorithms" by Jean Meeus.
NGC2000 dso catalog and star labels from VizieR as provided by the Strasbourg astronomical Data Center.
Tycho2 catalog from the ESO archive.